User: anonymous
Location: Unspecified
(0.0000°N, 0.0000°E)
Time: 19:35:12
(UTC+02:00)
Language:

Centaur AC-64 - Orbit

View from above orbital plane
View from above orbital plane
View from above satellite
View from above satellite

Ground track
Ground track

The orbit data is extracted from the following two-line orbital elements,

1 15874U 85055B   14210.80335796  .00001386  00000-0  89758-3 0  5182
2 15874 023.3015 331.9323 6608185 229.2897 095.3378 03.13076300297037
Epoch (UTC): 29 July 2014 19:16:50
Eccentricity: 0.6608185
inclination: 23.3015°
perigee height: 316 km
apogee height: 26403 km
right ascension of ascending node: 331.9323°
argument of perigee: 229.2897°
revolutions per day: 3.13076300
mean anomaly at epoch: 95.3378°
orbit number at epoch: 29703

The dashed part of the orbit path shows where the satellite is in the earth's shadow,  

DLR